TELKOM 4 (MERAH PUTIH)

Last updated on Thu Jul 03 2025 00:02:48 GMT+0000 (Coordinated Universal Time)

1 43587U 18064A 25183.62414836 -.00000336 00000+0 00000+0 0 9990 2 43587 0.0129 322.1246 0001303 168.5687 122.8820 1.00271160 25377
UTC large
Height (km)
Speed (km/s)
/
Latitude / Longitude
Inclination (degrees)
Orbital Period (minutes)
Azimuth
Elevation
Range (km)
Doppler Factor

Next 0 passes for location: London (51.5072 / 0.1276)

Sorry there are no passes over London.